Pella Municipal Airport
Monday 11:55 PM
Temperature72° (86°/64°)
Dew Point64°
Relative Humidity75
%
Visibility10
mi
Pressure1014.6
mb
Wind DirectionSSW
210°
Wind Speed7
mph
Precipitation Today0.00"

Last 30 Observations

Time PresWx Temp DP Feels RH% Vsby Pressure Ceiling Direction Speed 1h Precip
11:35 PM 73° 64° 74
%
10
mi
1014.6
mb
SSW
200°
6
mph
0.00"
11:15 PM 73° 64° 74
%
10
mi
1014.6
mb
SSW
200°
6
mph
0.00"
10:55 PM 74° 64° 73
%
10
mi
1014.6
mb
SSW
200°
6
mph
0.00"
10:35 PM 74° 64° 73
%
10
mi
1014.6
mb
SSW
200°
7
mph
0.00"
10:15 PM 73° 64° 74
%
10
mi
1014.6
mb
SSW
200°
5
mph
0.00"
9:55 PM 75° 64° 70
%
10
mi
1014.6
mb
SSW
210°
6
mph
0.00"
9:35 PM 76° 64° 66
%
10
mi
1014.2
mb
SW
220°
5
mph
0.00"
9:15 PM 76° 64° 65
%
10
mi
1013.9
mb
SSW
210°
5
mph
0.00"
8:55 PM 78° 64° 61
%
10
mi
1013.9
mb
SW
220°
6
mph
0.00"
8:35 PM 79° 64° 58
%
10
mi
1013.6
mb
SSW
210°
7
mph
0.00"
8:15 PM 81° 64° 56
%
10
mi
1013.2
mb
SSW
210°
9
mph
(G16)
0.00"
7:55 PM 82° 63° 53
%
10
mi
1012.9
mb
SSW
210°
14
mph
0.00"
7:35 PM 83° 63° 52
%
10
mi
1012.9
mb
SSW
210°
15
mph
(G22)
0.00"
7:15 PM 84° 64° 51
%
10
mi
1012.9
mb
SSW
200°
14
mph
(G26)
0.00"
6:55 PM 84° 63° 49
%
10
mi
1012.9
mb
SSW
210°
20
mph
(G30)
0.00"
6:35 PM 84° 63° 49
%
10
mi
1012.9
mb
SW
220°
14
mph
(G26)
0.00"
6:15 PM 85° 64° 48
%
10
mi
1013.2
mb
SSW
200°
20
mph
(G29)
0.00"
5:55 PM 85° 63° 47
%
10
mi
1013.2
mb
SSW
210°
17
mph
(G30)
0.00"
5:35 PM 85° 62° 47
%
10
mi
1013.2
mb
SSW
210°
16
mph
(G29)
0.00"
5:15 PM 85° 62° 46
%
10
mi
1013.6
mb
SSW
210°
20
mph
(G32)
0.00"
4:55 PM 85° 63° 48
%
10
mi
1013.6
mb
SSW
200°
21
mph
(G26)
0.00"
4:35 PM 85° 63° 47
%
10
mi
1013.9
mb
S
190°
15
mph
(G28)
0.00"
4:15 PM 85° 62° 47
%
10
mi
1013.9
mb
SSW
210°
20
mph
(G32)
0.00"
3:55 PM 84° 62° 47
%
10
mi
1014.2
mb
SSW
200°
24
mph
(G31)
0.00"
3:35 PM 84° 62° 47
%
10
mi
1014.6
mb
SSW
200°
17
mph
(G30)
0.00"
3:15 PM 83° 61° 47
%
10
mi
1014.9
mb
SSW
200°
15
mph
(G28)
0.00"
2:55 PM 84° 61° 46
%
7
mi
1015.2
mb
S
190°
20
mph
(G28)
0.00"
2:35 PM 85° 61° 45
%
7
mi
1015.2
mb
SSW
200°
16
mph
(G28)
0.00"
2:15 PM HZ 82° 63° 53
%
5
mi
1015.6
mb
S
190°
17
mph
(G25)
0.00"
1:55 PM 82° 64° 54
%
10
mi
1016.3
mb
S
190°
17
mph
(G23)
0.00"